Tracking 25612 objects as of 19-May-2022
HD Live streaming from Space Station
objects crossing your sky now

SUCHAI

Track SUCHAI now!
10-day predictions
SUCHAI is classified as:


NORAD ID: 42788
Int'l Code: 2017-036Z
Perigee: 475.8 km
Apogee: 491.3 km
Inclination: 97.2 °
Period: 94.1 minutes
Semi major axis: 6854 km
RCS: Unknown
Launch date: June 23, 2017
Source: Chile (CHLE)
Launch site: SRIHARIKOTA (SRI)

Uplink (MHz):
Downlink (MHz): 437.225
Beacon (MHz): 437.229
Mode: CW
Call sign: SUCHAI
Status: Active

aabbcc
Your satellite tracking list
Your tracking list is empty




NASA's NSSDC Master Catalog

Two Line Element Set (TLE):
1 42788U 17036Z   22138.09719328  .00021314  00000-0  73860-3 0  9999
2 42788  97.2019 182.5716 0011282  77.0722 283.1778 15.29789852272540
Source of the keplerian elements: AMSAT